EN

Hourly Weather Chandigarh

Today, 27 November, Friday

Time Temperature Precipitation Wind Pressure Humidity
00:00 +15°C° 0 mm 2 mps 736 mmHg 55%
01:00 +15°C° 0 mm 2 mps 736 mmHg 55%
02:00 +15°C° 0 mm 2 mps 735 mmHg 54%
03:00 +15°C° 0 mm 2 mps 735 mmHg 53%
04:00 +14°C° 0 mm 2 mps 735 mmHg 51%
05:00 +14°C° 0 mm 2 mps 735 mmHg 50%
06:00 +15°C° 0 mm 2 mps 735 mmHg 47%
07:00 +16°C° 0 mm 2 mps 735 mmHg 43%
08:00 +17°C° 0 mm 2 mps 736 mmHg 40%
09:00 +20°C° 0 mm 2 mps 736 mmHg 34%
10:00 +23°C° 0 mm 2 mps 736 mmHg 28%
11:00 +26°C° 0 mm 2 mps 736 mmHg 21%
12:00 +27°C° 0 mm 3 mps 735 mmHg 20%
13:00 +27°C° 0 mm 3 mps 735 mmHg 19%
14:00 +28°C° 0 mm 3 mps 734 mmHg 17%
15:00 +26°C° 0 mm 3 mps 734 mmHg 22%
16:00 +24°C° 0 mm 3 mps 734 mmHg 26%
17:00 +21°C° 0 mm 3 mps 734 mmHg 30%
18:00 +20°C° 0 mm 3 mps 734 mmHg 31%
19:00 +19°C° 0 mm 3 mps 735 mmHg 31%
20:00 +18°C° 0 mm 3 mps 735 mmHg 32%
21:00 +18°C° 0 mm 3 mps 735 mmHg 31%
22:00 +17°C° 0 mm 3 mps 735 mmHg 30%
23:00 +17°C° 0 mm 2 mps 735 mmHg 29%

Tomorrow, 28 November, Saturday

Time Temperature Precipitation Wind Pressure Humidity
00:00 +16°C° 0 mm 2 mps 735 mmHg 28%
01:00 +16°C° 0 mm 2 mps 734 mmHg 28%
02:00 +16°C° 0 mm 2 mps 734 mmHg 28%
03:00 +15°C° 0 mm 2 mps 733 mmHg 28%
04:00 +15°C° 0 mm 2 mps 733 mmHg 27%
05:00 +15°C° 0 mm 2 mps 733 mmHg 26%
06:00 +15°C° 0 mm 2 mps 733 mmHg 27%
07:00 +16°C° 0 mm 1 mps 733 mmHg 27%
08:00 +18°C° 0 mm 1 mps 734 mmHg 27%
09:00 +20°C° 0 mm 1 mps 734 mmHg 24%
10:00 +23°C° 0 mm 2 mps 733 mmHg 20%
11:00 +25°C° 0 mm 2 mps 733 mmHg 17%
12:00 +26°C° 0 mm 2 mps 733 mmHg 17%
13:00 +26°C° 0 mm 2 mps 733 mmHg 17%
14:00 +27°C° 0 mm 2 mps 732 mmHg 17%
15:00 +25°C° 0 mm 2 mps 732 mmHg 21%
16:00 +23°C° 0 mm 2 mps 732 mmHg 25%
17:00 +20°C° 0 mm 2 mps 732 mmHg 28%
18:00 +19°C° 0 mm 2 mps 732 mmHg 29%
19:00 +18°C° 0 mm 2 mps 732 mmHg 30%
20:00 +17°C° 0 mm 2 mps 733 mmHg 32%
21:00 +18°C° 0 mm 1 mps 732 mmHg 32%
22:00 +18°C° 0 mm 1 mps 732 mmHg 32%
23:00 +16°C° 0 mm 1 mps 732 mmHg 32%

Day after tomorrow, 29 November, Sunday

Time Temperature Precipitation Wind Pressure Humidity
00:00 +16°C° 0 mm 1 mps 732 mmHg 32%
01:00 +16°C° 0 mm 1 mps 732 mmHg 33%
02:00 +15°C° 0 mm 1 mps 732 mmHg 33%
03:00 +15°C° 0 mm 1 mps 732 mmHg 33%
04:00 +15°C° 0 mm 1 mps 732 mmHg 33%
05:00 +15°C° 0 mm 1 mps 732 mmHg 33%
06:00 +16°C° 0 mm 1 mps 732 mmHg 34%
07:00 +18°C° 0 mm 1 mps 733 mmHg 34%
08:00 +19°C° 0 mm 1 mps 733 mmHg 34%
09:00 +20°C° 0 mm 1 mps 733 mmHg 31%
10:00 +21°C° 0 mm 2 mps 734 mmHg 28%
11:00 +24°C° 0 mm 2 mps 734 mmHg 25%
12:00 +24°C° 0 mm 1 mps 733 mmHg 24%
13:00 +25°C° 0 mm 1 mps 733 mmHg 23%
14:00 +25°C° 0 mm 1 mps 733 mmHg 22%
15:00 +24°C° 0 mm 1 mps 732 mmHg 25%
16:00 +22°C° 0 mm 1 mps 732 mmHg 28%
17:00 +20°C° 0 mm 1 mps 732 mmHg 31%
18:00 +19°C° 0 mm 1 mps 732 mmHg 33%
19:00 +19°C° 0 mm 1 mps 732 mmHg 35%
20:00 +18°C° 0 mm 1 mps 733 mmHg 37%
21:00 +18°C° 0 mm 1 mps 732 mmHg 38%
22:00 +16°C° 0 mm 1 mps 732 mmHg 39%
23:00 +16°C° 0 mm 1 mps 732 mmHg 40%

30 November, Monday

Time Temperature Precipitation Wind Pressure Humidity
00:00 +16°C° 0 mm 1 mps 732 mmHg 40%
01:00 +16°C° 0 mm 1 mps 732 mmHg 40%
02:00 +15°C° 0 mm 1 mps 732 mmHg 41%
03:00 +15°C° 0 mm 1 mps 731 mmHg 41%
04:00 +15°C° 0 mm 1 mps 731 mmHg 41%
05:00 +14°C° 0 mm 1 mps 731 mmHg 41%
06:00 +15°C° 0 mm 1 mps 731 mmHg 40%
07:00 +15°C° 0 mm 0 mps 732 mmHg 39%
08:00 +16°C° 0 mm 0 mps 732 mmHg 37%
09:00 +20°C° 0 mm 1 mps 732 mmHg 33%
10:00 +22°C° 0 mm 1 mps 732 mmHg 29%
11:00 +25°C° 0 mm 1 mps 732 mmHg 25%
12:00 +25°C° 0 mm 1 mps 732 mmHg 24%
13:00 +26°C° 0 mm 2 mps 731 mmHg 23%
14:00 +26°C° 0 mm 2 mps 731 mmHg 22%
15:00 +25°C° 0 mm 2 mps 731 mmHg 25%
16:00 +23°C° 0 mm 2 mps 731 mmHg 28%
17:00 +20°C° 0 mm 2 mps 731 mmHg 32%
18:00 +20°C° 0 mm 1 mps 731 mmHg 34%
19:00 +19°C° 0 mm 1 mps 731 mmHg 36%
20:00 +18°C° 0 mm 1 mps 732 mmHg 37%
21:00 +18°C° 0 mm 1 mps 732 mmHg 39%
22:00 +18°C° 0 mm 1 mps 732 mmHg 40%
23:00 +18°C° 0 mm 1 mps 732 mmHg 41%

1 December, Tuesday

Time Temperature Precipitation Wind Pressure Humidity
00:00 +16°C° 0 mm 1 mps 732 mmHg 42%
01:00 +16°C° 0 mm 1 mps 732 mmHg 43%
02:00 +16°C° 0 mm 1 mps 732 mmHg 44%
03:00 +15°C° 0 mm 1 mps 732 mmHg 45%
04:00 +15°C° 0 mm 1 mps 731 mmHg 45%
05:00 +15°C° 0 mm 1 mps 731 mmHg 46%
06:00 +16°C° 0 mm 1 mps 732 mmHg 45%
07:00 +18°C° 0 mm 1 mps 732 mmHg 43%
08:00 +19°C° 0 mm 1 mps 733 mmHg 42%
09:00 +21°C° 0 mm 1 mps 733 mmHg 38%
10:00 +23°C° 0 mm 1 mps 733 mmHg 33%
11:00 +25°C° 0 mm 1 mps 733 mmHg 29%
12:00 +26°C° 0 mm 1 mps 733 mmHg 27%
13:00 +26°C° 0 mm 2 mps 732 mmHg 24%
14:00 +27°C° 0 mm 2 mps 732 mmHg 22%
15:00 +25°C° 0 mm 2 mps 732 mmHg 24%
16:00 +23°C° 0 mm 2 mps 732 mmHg 26%
17:00 +20°C° 0 mm 2 mps 731 mmHg 29%
18:00 +19°C° 0 mm 2 mps 732 mmHg 30%
19:00 +19°C° 0 mm 2 mps 732 mmHg 32%
20:00 +19°C° 0 mm 1 mps 732 mmHg 34%
21:00 +19°C° 0 mm 1 mps 732 mmHg 36%
22:00 +18°C° 0 mm 1 mps 732 mmHg 37%
23:00 +18°C° 0 mm 1 mps 732 mmHg 38%

2 December, Wednesday

Time Temperature Precipitation Wind Pressure Humidity
00:00 +18°C° 0 mm 1 mps 732 mmHg 39%
01:00 +16°C° 0 mm 1 mps 731 mmHg 39%
02:00 +16°C° 0 mm 1 mps 731 mmHg 40%
03:00 +16°C° 0 mm 1 mps 731 mmHg 40%
04:00 +15°C° 0 mm 1 mps 731 mmHg 40%
05:00 +15°C° 0 mm 1 mps 731 mmHg 40%
06:00 +16°C° 0 mm 1 mps 731 mmHg 39%
07:00 +18°C° 0 mm 1 mps 731 mmHg 38%
08:00 +18°C° 0 mm 1 mps 732 mmHg 37%
09:00 +21°C° 0 mm 1 mps 732 mmHg 33%
10:00 +23°C° 0 mm 2 mps 732 mmHg 29%
11:00 +25°C° 0 mm 2 mps 732 mmHg 24%
12:00 +26°C° 0 mm 3 mps 731 mmHg 22%
13:00 +27°C° 0 mm 3 mps 730 mmHg 21%
14:00 +28°C° 0 mm 4 mps 730 mmHg 19%
15:00 +26°C° 0 mm 4 mps 730 mmHg 21%
16:00 +24°C° 0 mm 3 mps 729 mmHg 24%
17:00 +21°C° 0 mm 3 mps 729 mmHg 26%
18:00 +20°C° 0 mm 3 mps 729 mmHg 28%
19:00 +19°C° 0 mm 3 mps 730 mmHg 30%
20:00 +18°C° 0 mm 2 mps 730 mmHg 32%
21:00 +18°C° 0 mm 2 mps 730 mmHg 32%
22:00 +17°C° 0 mm 2 mps 730 mmHg 33%
23:00 +17°C° 0 mm 2 mps 730 mmHg 33%
Show more